TAM3900 SBSP-SBRJ

Flight info

Callsign TAM3900
Flight time 0h 38m
Altitude 27000
Route NIBRU UZ171 KEVUN
Aircraft A319/M-SDE3FGHIRWY/LB1

Departure

Time 2026-05-07 06:52
Airport Congonhas–Deputado Freitas Nobre Airport (SBSP)

Arrival

Time 2026-05-07 07:30
Airport Santos Dumont Airport (SBRJ)
Time Latitude Longitude Altitude Speed Heading
2026-05-07 06:28 -23.62659 -46.65867 2601 ft 0 kts 237°
2026-05-07 06:45 -23.62654 -46.65859 2601 ft 4 kts 237°
2026-05-07 06:45 -23.62639 -46.65836 2601 ft 4 kts 214°
2026-05-07 06:46 -23.62623 -46.65833 2601 ft 3 kts 147°
2026-05-07 06:46 -23.62611 -46.65841 2601 ft 0 kts 147°
2026-05-07 06:48 -23.62627 -46.65828 2601 ft 4 kts 130°
2026-05-07 06:48 -23.62651 -46.65788 2601 ft 8 kts 124°
2026-05-07 06:48 -23.62689 -46.65740 2602 ft 9 kts 138°
2026-05-07 06:49 -23.62752 -46.65696 2602 ft 12 kts 147°
2026-05-07 06:49 -23.62821 -46.65648 2603 ft 13 kts 147°
2026-05-07 06:49 -23.62900 -46.65593 2603 ft 14 kts 147°
2026-05-07 06:49 -23.62985 -46.65535 2603 ft 15 kts 148°
2026-05-07 06:50 -23.63089 -46.65499 2602 ft 17 kts 147°
2026-05-07 06:50 -23.63188 -46.65430 2602 ft 18 kts 147°
2026-05-07 06:50 -23.63296 -46.65356 2602 ft 19 kts 147°
2026-05-07 06:50 -23.63405 -46.65279 2602 ft 15 kts 147°
2026-05-07 06:51 -23.63493 -46.65213 2601 ft 13 kts 127°
2026-05-07 06:51 -23.63457 -46.65129 2600 ft 16 kts 30°
2026-05-07 06:51 -23.63405 -46.65134 2603 ft 0 kts 325°
2026-05-07 06:51 -23.63392 -46.65143 2604 ft 14 kts 326°
2026-05-07 06:52 -23.63057 -46.65375 2611 ft 99 kts 327°
2026-05-07 06:52 -23.62262 -46.65922 2649 ft 163 kts 332°
2026-05-07 06:52 -23.61339 -46.66573 3581 ft 152 kts 331°
2026-05-07 06:52 -23.60337 -46.66912 4158 ft 158 kts
2026-05-07 06:53 -23.59271 -46.66458 4348 ft 180 kts 39°
2026-05-07 06:53 -23.58763 -46.65689 4451 ft 199 kts 66°
2026-05-07 06:53 -23.58754 -46.64085 4710 ft 228 kts 102°
2026-05-07 06:53 -23.59280 -46.62430 5398 ft 234 kts 109°
2026-05-07 06:54 -23.59900 -46.60776 6190 ft 238 kts 108°
2026-05-07 06:54 -23.60457 -46.58986 6626 ft 261 kts 105°
2026-05-07 06:54 -23.60991 -46.57009 7075 ft 281 kts 104°
2026-05-07 06:54 -23.61839 -46.55072 7787 ft 290 kts 126°
2026-05-07 06:55 -23.63175 -46.53418 8643 ft 293 kts 133°
2026-05-07 06:55 -23.64635 -46.51856 9528 ft 295 kts 135°
2026-05-07 06:55 -23.66148 -46.50322 10339 ft 299 kts 135°
2026-05-07 06:55 -23.67729 -46.48729 10591 ft 323 kts 135°
2026-05-07 06:56 -23.69248 -46.46826 10818 ft 342 kts 122°
2026-05-07 06:56 -23.70301 -46.44508 11342 ft 347 kts 108°
2026-05-07 06:56 -23.70794 -46.41922 11970 ft 350 kts 93°
2026-05-07 06:56 -23.70678 -46.39270 12637 ft 352 kts 81°
2026-05-07 06:57 -23.70293 -46.36622 13255 ft 355 kts 81°
2026-05-07 06:57 -23.69906 -46.33953 13838 ft 358 kts 81°
2026-05-07 06:57 -23.69518 -46.31257 14392 ft 361 kts 81°
2026-05-07 06:57 -23.69130 -46.28535 14900 ft 365 kts 82°
2026-05-07 06:58 -23.68738 -46.25787 15422 ft 368 kts 82°
2026-05-07 06:58 -23.68344 -46.23020 15974 ft 371 kts 82°
2026-05-07 06:58 -23.67947 -46.20229 16481 ft 375 kts 82°
2026-05-07 06:58 -23.67545 -46.17410 17006 ft 378 kts 82°
2026-05-07 06:59 -23.67136 -46.14565 17531 ft 382 kts 82°
2026-05-07 06:59 -23.66720 -46.11689 18041 ft 385 kts 82°
2026-05-07 06:59 -23.66309 -46.08827 18556 ft 389 kts 82°
2026-05-07 06:59 -23.65890 -46.05898 19019 ft 393 kts 82°
2026-05-07 07:00 -23.65465 -46.02941 19455 ft 397 kts 82°
2026-05-07 07:00 -23.65038 -45.99953 19904 ft 401 kts 83°
2026-05-07 07:00 -23.64606 -45.96929 20356 ft 405 kts 83°
2026-05-07 07:00 -23.64168 -45.93877 20826 ft 409 kts 83°
2026-05-07 07:01 -23.63721 -45.90795 21281 ft 413 kts 83°
2026-05-07 07:01 -23.63270 -45.87681 21725 ft 417 kts 83°
2026-05-07 07:01 -23.62816 -45.84539 22153 ft 422 kts 83°
2026-05-07 07:01 -23.62358 -45.81366 22576 ft 426 kts 83°
2026-05-07 07:02 -23.61894 -45.78164 22990 ft 430 kts 83°
2026-05-07 07:02 -23.61421 -45.74932 23407 ft 433 kts 83°
2026-05-07 07:02 -23.60945 -45.71675 23793 ft 436 kts 83°
2026-05-07 07:02 -23.60468 -45.68399 24115 ft 440 kts 83°
2026-05-07 07:03 -23.59984 -45.65085 24452 ft 443 kts 83°
2026-05-07 07:03 -23.59496 -45.61761 24811 ft 446 kts 83°
2026-05-07 07:03 -23.59003 -45.58409 25156 ft 449 kts 84°
2026-05-07 07:03 -23.58509 -45.55043 25514 ft 451 kts 84°
2026-05-07 07:04 -23.58013 -45.51655 25867 ft 454 kts 84°
2026-05-07 07:04 -23.57513 -45.48245 26213 ft 457 kts 84°
2026-05-07 07:04 -23.56969 -45.44822 26554 ft 461 kts 83°
2026-05-07 07:04 -23.56313 -45.41385 26898 ft 464 kts 81°
2026-05-07 07:05 -23.55584 -45.37991 27068 ft 466 kts 80°
2026-05-07 07:05 -23.54806 -45.34588 27097 ft 461 kts 79°
2026-05-07 07:05 -23.54026 -45.31211 27093 ft 459 kts 80°
2026-05-07 07:05 -23.53263 -45.27840 27098 ft 458 kts 80°
2026-05-07 07:06 -23.52525 -45.24470 27097 ft 457 kts 81°
2026-05-07 07:06 -23.51805 -45.21096 27098 ft 457 kts 81°
2026-05-07 07:06 -23.51094 -45.17722 27086 ft 457 kts 81°
2026-05-07 07:06 -23.50385 -45.14352 27083 ft 457 kts 81°
2026-05-07 07:07 -23.49674 -45.10980 27082 ft 457 kts 81°
2026-05-07 07:07 -23.49005 -45.07816 27080 ft 457 kts 81°
2026-05-07 07:07 -23.48289 -45.04447 27078 ft 456 kts 81°
2026-05-07 07:07 -23.47602 -45.01231 27079 ft 456 kts 81°
2026-05-07 07:08 -23.46879 -44.97864 27075 ft 456 kts 81°
2026-05-07 07:08 -23.46156 -44.94496 27088 ft 456 kts 81°
2026-05-07 07:08 -23.45430 -44.91164 27076 ft 458 kts 81°
2026-05-07 07:08 -23.44684 -44.87790 26331 ft 461 kts 80°
2026-05-07 07:09 -23.43923 -44.84378 25592 ft 463 kts 79°
2026-05-07 07:09 -23.43165 -44.80991 24994 ft 459 kts 79°
2026-05-07 07:09 -23.42413 -44.77631 24401 ft 455 kts 79°
2026-05-07 07:09 -23.41665 -44.74294 23803 ft 451 kts 79°
2026-05-07 07:10 -23.40924 -44.70996 23170 ft 446 kts 78°
2026-05-07 07:10 -23.40190 -44.67740 22638 ft 439 kts 78°
2026-05-07 07:10 -23.39470 -44.64543 22106 ft 431 kts 78°
2026-05-07 07:10 -23.38765 -44.61395 21605 ft 425 kts 78°
2026-05-07 07:11 -23.38074 -44.58292 21107 ft 419 kts 78°
2026-05-07 07:11 -23.37395 -44.55232 20602 ft 414 kts 78°
2026-05-07 07:11 -23.36729 -44.52245 20106 ft 411 kts 78°
2026-05-07 07:11 -23.36056 -44.49240 19589 ft 407 kts 78°
2026-05-07 07:12 -23.35384 -44.46256 19082 ft 404 kts 78°
2026-05-07 07:12 -23.34709 -44.43301 18540 ft 401 kts 76°
2026-05-07 07:12 -23.33723 -44.40470 17966 ft 400 kts 66°
2026-05-07 07:12 -23.32549 -44.37764 17400 ft 396 kts 66°
2026-05-07 07:13 -23.31389 -44.35067 16851 ft 391 kts 66°
2026-05-07 07:13 -23.30324 -44.32578 16337 ft 387 kts 66°
2026-05-07 07:13 -23.29197 -44.29947 15792 ft 382 kts 66°
2026-05-07 07:13 -23.28081 -44.27336 15243 ft 378 kts 66°
2026-05-07 07:14 -23.27034 -44.24888 14721 ft 374 kts 66°
2026-05-07 07:14 -23.25938 -44.22337 14178 ft 371 kts 65°
2026-05-07 07:14 -23.24848 -44.19812 13615 ft 367 kts 65°
2026-05-07 07:14 -23.23768 -44.17315 13046 ft 362 kts 65°
2026-05-07 07:15 -23.22704 -44.14856 12521 ft 357 kts 65°
2026-05-07 07:15 -23.21699 -44.12537 12015 ft 352 kts 64°
2026-05-07 07:15 -23.20685 -44.10194 11510 ft 348 kts 64°
2026-05-07 07:15 -23.19661 -44.07825 10997 ft 344 kts 64°
2026-05-07 07:16 -23.18691 -44.05634 10688 ft 338 kts 63°
2026-05-07 07:16 -23.17664 -44.03387 10521 ft 325 kts 63°
2026-05-07 07:16 -23.16679 -44.01266 10402 ft 312 kts 62°
2026-05-07 07:16 -23.15719 -43.99204 10292 ft 299 kts 62°
2026-05-07 07:17 -23.14823 -43.97200 10114 ft 292 kts 63°
2026-05-07 07:17 -23.14012 -43.95311 10041 ft 289 kts 64°
2026-05-07 07:17 -23.13173 -43.93335 9912 ft 288 kts 64°
2026-05-07 07:17 -23.12336 -43.91358 9759 ft 288 kts 64°
2026-05-07 07:18 -23.11500 -43.89383 9603 ft 287 kts 64°
2026-05-07 07:18 -23.10665 -43.87415 9457 ft 287 kts 64°
2026-05-07 07:18 -23.09827 -43.85453 9308 ft 286 kts 64°
2026-05-07 07:18 -23.08991 -43.83496 9157 ft 286 kts 64°
2026-05-07 07:19 -23.08153 -43.81541 8997 ft 284 kts 64°
2026-05-07 07:19 -23.07321 -43.79602 8854 ft 283 kts 64°
2026-05-07 07:19 -23.06491 -43.77669 8703 ft 282 kts 64°
2026-05-07 07:19 -23.05662 -43.75736 8559 ft 282 kts 64°
2026-05-07 07:20 -23.04835 -43.73812 8407 ft 280 kts 63°
2026-05-07 07:20 -23.04014 -43.71901 8263 ft 280 kts 64°
2026-05-07 07:20 -23.03191 -43.69988 8115 ft 279 kts 64°
2026-05-07 07:20 -23.02369 -43.68087 7826 ft 278 kts 63°
2026-05-07 07:21 -23.01545 -43.66202 7540 ft 276 kts 64°
2026-05-07 07:21 -23.00770 -43.64433 7295 ft 276 kts 63°
2026-05-07 07:21 -22.99949 -43.62557 7040 ft 275 kts 64°
2026-05-07 07:21 -22.99128 -43.60690 6871 ft 274 kts 64°
2026-05-07 07:22 -22.98314 -43.58836 6721 ft 274 kts 64°
2026-05-07 07:22 -22.97493 -43.56970 6557 ft 273 kts 64°
2026-05-07 07:22 -22.96674 -43.55114 6389 ft 273 kts 64°
2026-05-07 07:22 -22.95856 -43.53261 6205 ft 272 kts 64°
2026-05-07 07:23 -22.95037 -43.51411 6051 ft 271 kts 64°
2026-05-07 07:23 -22.94228 -43.49564 5795 ft 271 kts 64°
2026-05-07 07:23 -22.93438 -43.47709 5496 ft 269 kts 65°
2026-05-07 07:23 -22.92676 -43.45897 5206 ft 268 kts 65°
2026-05-07 07:24 -22.91905 -43.44059 4914 ft 267 kts 65°
2026-05-07 07:24 -22.91135 -43.42233 4652 ft 266 kts 65°
2026-05-07 07:24 -22.90364 -43.40414 4416 ft 263 kts 65°
2026-05-07 07:24 -22.89608 -43.38630 4186 ft 257 kts 65°
2026-05-07 07:25 -22.88350 -43.35097 3743 ft 248 kts 82°
2026-05-07 07:25 -22.88336 -43.33261 3528 ft 243 kts 91°
2026-05-07 07:25 -22.88402 -43.31488 3316 ft 239 kts 91°
2026-05-07 07:26 -22.88461 -43.29714 3105 ft 233 kts 91°
2026-05-07 07:26 -22.88519 -43.27992 2892 ft 228 kts 91°
2026-05-07 07:26 -22.88647 -43.26303 2689 ft 222 kts 104°
2026-05-07 07:26 -22.89184 -43.24737 2391 ft 221 kts 111°
2026-05-07 07:27 -22.89745 -43.23238 2105 ft 207 kts 111°
2026-05-07 07:27 -22.90205 -43.22012 1933 ft 194 kts 111°
2026-05-07 07:27 -22.90301 -43.21757 1890 ft 192 kts 111°
2026-05-07 07:27 -22.90397 -43.21499 1885 ft 182 kts 112°
2026-05-07 07:28 -22.90835 -43.20296 1949 ft 166 kts 122°
2026-05-07 07:28 -22.91757 -43.19617 1550 ft 157 kts 158°
2026-05-07 07:28 -22.92773 -43.19342 1277 ft 147 kts 171°
2026-05-07 07:28 -22.93753 -43.19187 1062 ft 143 kts 156°
2026-05-07 07:29 -22.94470 -43.18510 889 ft 137 kts 116°
2026-05-07 07:29 -22.94641 -43.17543 719 ft 130 kts 81°
2026-05-07 07:29 -22.94271 -43.16670 551 ft 130 kts 48°
2026-05-07 07:29 -22.93498 -43.16190 353 ft 131 kts 12°
2026-05-07 07:30 -22.92584 -43.16191 225 ft 133 kts 357°
2026-05-07 07:30 -22.91668 -43.16242 51 ft 132 kts 356°
2026-05-07 07:30 -22.90853 -43.16295 25 ft 93 kts 356°
2026-05-07 07:30 -22.90555 -43.16314 24 ft 25 kts 357°
2026-05-07 07:31 -22.90492 -43.16392 24 ft 17 kts 266°
2026-05-07 07:31 -22.90499 -43.16519 22 ft 16 kts 267°
2026-05-07 07:31 -22.90582 -43.16553 24 ft 15 kts 176°
2026-05-07 07:31 -22.90696 -43.16547 22 ft 18 kts 176°
2026-05-07 07:32 -22.90825 -43.16548 22 ft 20 kts 192°
2026-05-07 07:32 -22.90951 -43.16543 22 ft 17 kts 176°
2026-05-07 07:32 -22.91064 -43.16535 23 ft 16 kts 176°
2026-05-07 07:32 -22.91174 -43.16515 24 ft 11 kts 176°
2026-05-07 07:33 -22.91245 -43.16520 22 ft 6 kts 230°
2026-05-07 07:33 -22.91245 -43.16576 22 ft 6 kts 268°
2026-05-07 07:33 -22.91245 -43.16584 22 ft 0 kts 268°